Regional Weather Roundup
Issued by NWS Boston, MA

Current Version | Previous Version | Text Only | Print | Product List | Glossary Off
Versions: 1 2 3 4 5 6 7 8 9 10 11 12 13 14 15 16 17 18 19 20 21 22 23 24 25 26 27 28 29 30 31 32 33 34 35 36 37 38 39 40 41 42 43 44 45 46 47 48 49 50

578
ASUS41 KBOX 160410
RWRBOX

REGIONAL WEATHER ROUNDUP
NATIONAL WEATHER SERVICE TAUNTON MA
1100 PM EST MON JAN 15 2018

NOTE:  "FAIR" INDICATES FEW OR NO CLOUDS BELOW 12,000 FEET WITH NO
SIGNIFICANT WEATHER AND/OR OBSTRUCTIONS TO VISIBILITY.

MAZALL-160500-
EASTERN MASSACHUSETTS

CITY           SKY/WX    TMP DP  RH WIND       PRES   REMARKS
BOSTON         CLOUDY    20   9  62 NW12      30.55F WCI   8
BEVERLY        CLOUDY    20  10  65 N8        30.54F WCI  10
LAWRENCE       CLOUDY    22   7  52 N6        30.57F WCI  14
BEDFORD        CLOUDY    20   2  45 N6        30.53F WCI  12
BLUE HILL        N/A     18   7  62 N10       30.48F WCI   6
NORWOOD        CLOUDY    23   6  48 N3        30.54F
MARSHFIELD     CLOUDY    27  25  93 MISG      30.51F
PLYMOUTH       CLOUDY    22  18  85 N10       30.50F WCI  11
TAUNTON        CLOUDY    21   8  57 N6        30.51F WCI  13
NEW BEDFORD    CLOUDY    21  12  68 VRB5      30.50F WCI  15
$$

MAZALL-160500-
CAPE COD AND THE ISLANDS

CITY           SKY/WX    TMP DP  RH WIND       PRES   REMARKS
FALMOUTH       FRZ DRZL  25  23  93 MISG      30.49
HYANNIS        CLOUDY    30  28  92 N18G26    30.45F WCI  18
CHATHAM        LGT SNOW  31  30  96 N8G18     30.48F FOG     WCI  23
PROVINCETOWN   CLOUDY    29  27  92 MISG        N/A
NANTUCKET      CLOUDY    31  31 100 N21G26    30.44F WCI  18
MARTHAS VNYRD  CLOUDY   N/A N/A N/A N14       30.47F
$$

MAZALL-160500-
CENTRAL AND WESTERN MASSACHUSETTS

CITY           SKY/WX    TMP DP  RH WIND       PRES   REMARKS
WORCESTER      CLOUDY    17  -2  43 N7        30.46F WCI   8
FITCHBURG      CLOUDY    22   3  44 N5        30.54S WCI  16
ORANGE         CLOUDY   N/A N/A N/A N3        30.53S
SPRINGFIELD    CLOUDY    21   7  55 N6        30.52F WCI  13
WESTFIELD      CLOUDY    20   7  57 N7        30.52F WCI  11
NORTH ADAMS    FAIR      19   9  65 E8        30.48F WCI   9
PITTSFIELD     FAIR      17   8  67 CALM      30.42F
$$

RIZALL-160500-
RHODE ISLAND

CITY           SKY/WX    TMP DP  RH WIND       PRES   REMARKS
PROVIDENCE     CLOUDY    23  11  60 N14       30.52F WCI  11
NEWPORT        CLOUDY    21   9  59 N13G20    30.49F WCI   9
BLOCK ISLAND   CLOUDY    25  20  81 NE16G22   30.50F WCI  12
SMITHFIELD     CLOUDY   N/A N/A N/A N10       30.50F
WESTERLY       CLOUDY    23  15  71 N7        30.51F WCI  15
$$

CTZALL-160500-
CONNECTICUT

CITY           SKY/WX    TMP DP  RH WIND       PRES   REMARKS
BRADLEY INTL   CLOUDY    21   6  52 N6        30.53F WCI  13
HARTFORD       CLOUDY   N/A N/A N/A N8        30.53F
BRIDGEPORT     FAIR      23  12  62 NE5       30.52S WCI  17
DANBURY        CLOUDY    20  11  68 CALM      30.50S
GROTON         CLOUDY    23  14  68 N13       30.50F WCI  11
NEW HAVEN      FAIR      21  11  65 N6        30.50F WCI  13
CHESTER        CLOUDY    23  18  80 N6        30.49F WCI  16
MERIDEN        FAIR      21   7  54 VRB5      30.52F WCI  15
WILLIMANTIC    CLOUDY    23  14  68 NE6       30.52F WCI  16
OXFORD         FAIR      18  10  71 VRB3      30.46F
$$

MEZ002-015-021-024-NHZ003-005-008-011-012-014-VTZ005-008-160500-
NORTHERN NEW ENGLAND

CITY           SKY/WX    TMP DP  RH WIND       PRES   REMARKS
PORTLAND ME    CLOUDY    17  12  80 NE9       30.58S WCI   6
BANGOR ME      FLURRIES  13   7  77 N14       30.60F WCI  -2
CONCORD NH     CLOUDY    15   2  56 NW7       30.55F WCI   5
MANCHESTER NH  CLOUDY    19   2  47 N6        30.54F WCI  11
NASHUA NH      CLOUDY    19   3  49 NW7       30.56F WCI  10
PORTSMOUTH NH  FLURRIES  18  11  74 NE8       30.54F WCI   8
JAFFREY NH     CLOUDY    18   1  47 CALM      30.47F
KEENE NH       CLOUDY    19   6  57 N6        30.53F WCI  11
BURLINGTON VT  MOCLDY     0  -6  76 CALM      30.54F
MT. WASHINGTON MOCLDY    10 -24  20 SW13        N/A  WCI  -5
$$

NYZ052-076-160500-
EASTERN NEW YORK

CITY           SKY/WX    TMP DP  RH WIND       PRES   REMARKS
ALBANY         CLOUDY    13   6  74 CALM      30.52F
NEW YORK CITY  MOCLDY    25  16  68 E8        30.51F WCI  16
$$

ANZALL-160500-
MARINE OBSERVATIONS

STATION/POSITION TIME  TEMP    WIND        PRES    VSBY  WAVE
                       AIR SEA DIR/SP/G                  HT/PER
                 (UTC) (F)     (DEG/KT/KT) (MB)    (MI)  (FT/S)
BOSTON BUOY      0350   27 42  360/ 14/ 17 1032.9F         8/ 7
BUZZARDS BAY     0300   22     360/ 19/ 21 1033.8R
NANTUCKET SOUND  0250   30 32  340/ 17/ 21 1031.4          3/ 4
MASS BAY-STELLWA 0304   26 40              1033.3R         8/ 8
ISLE OF SHOALS   0300   20      20/ 20/ 21 1034.4F
S OF BLOCK IS    0343      41                N/A           8/ 6
$$

......................KEY.........................
  SKY/WX - SKY CONDITION/PRESENT WEATHER
  TMP    - TEMPERATURE IN FAHRENHEIT
  DWPT   - DEWPOINT IN FAHRENHEIT
  RH     - RELATIVE HUMIDITY IN PERCENT
  WIND   - DIRECTION AND SPEED IN MPH
  PRES   - MEAN SEA LEVEL PRESSURE IN INCHES OF HG
  WCI    - WIND CHILL INDEX
  VSB    - VISIBILITY IN MILES
  HX     - HEAT INDEX
  TC     - TEMPERATURE IN CELSIUS
  VRB    - VARIABLE WIND DIRECTION
  N/A    - NOT AVAILABLE




USA.gov is the U.S. government's official web portal to all federal, state and local government web resources and services.